Location: LDNL
(36.4545°S, 141.6685°E)
Time: 11:22:35
(UTC+10:00)

METEOR M2 - Visible Passes

Search period start: 19 May 2022 00:00
Search period end: 29 May 2022 00:00
Orbit: 818 x 828 km, 98.4° (Epoch: 18 May)

Date Brightness Start Highest point End Pass type
(mag) Time Alt. Az. Time Alt. Az. Time Alt. Az.
19 May ? 06:28:26 10° NNE 06:33:43 58° ESE 06:39:05 10° S visible
19 May ? 18:51:48 23° ESE 18:53:54 30° E 18:58:34 10° NNE visible
19 May ? 20:33:13 30° SW 20:33:58 31° WSW 20:38:39 10° NW visible
20 May ? 06:08:57 10° NE 06:13:54 38° ESE 06:18:54 10° S visible
20 May ? 18:31:44 16° ESE 18:33:48 19° E 18:37:36 10° NE visible
20 May ? 20:13:09 42° SW 20:14:10 47° WSW 20:19:18 10° NW visible
21 May ? 05:49:46 10° ENE 05:54:08 25° ESE 05:58:32 10° SSE visible
21 May ? 18:11:39 10° ESE 18:13:39 12° E 18:15:40 10° ENE visible
21 May ? 19:53:04 53° S 19:54:19 73° WSW 19:59:40 10° NNW visible
22 May ? 05:31:02 10° ENE 05:34:25 17° ESE 05:37:50 10° SSE visible
22 May ? 19:32:59 50° SSE 19:34:24 74° ENE 19:39:46 10° N visible
22 May ? 21:14:24 13° WSW 21:14:24 13° WSW 21:16:23 10° W visible
23 May ? 05:13:21 10° ESE 05:14:47 11° ESE 05:16:13 10° SE visible
23 May ? 06:48:41 10° NNE 06:54:06 89° W 06:59:36 10° SSW visible
23 May ? 19:12:53 37° SE 19:14:25 47° E 19:19:35 10° N visible
23 May ? 20:54:18 20° WSW 20:54:18 20° WSW 20:58:03 10° WNW visible
24 May ? 06:28:54 10° NNE 06:34:13 60° ESE 06:39:36 10° S visible
24 May ? 18:52:46 26° ESE 18:54:24 31° E 18:59:06 10° NNE visible
24 May ? 20:34:12 30° WSW 20:34:27 30° WSW 20:39:06 10° NW visible
25 May ? 06:09:24 10° NE 06:14:23 39° ESE 06:19:25 10° S visible
25 May ? 18:32:40 17° ESE 18:34:19 20° E 18:38:09 10° NE visible
25 May ? 20:14:05 44° SW 20:14:39 46° WSW 20:19:45 10° NW visible
26 May ? 05:50:12 10° ENE 05:54:37 26° ESE 05:59:04 10° SSE visible
26 May ? 18:12:32 11° ESE 18:14:09 12° E 18:16:19 10° ENE visible
26 May ? 19:53:57 60° SSW 19:54:48 71° WSW 20:00:08 10° NNW visible
27 May ? 05:31:27 10° ENE 05:34:55 17° ESE 05:38:23 10° SSE visible
27 May ? 19:33:49 57° SE 19:34:53 76° ENE 19:40:15 10° N visible
27 May ? 21:15:15 13° WSW 21:15:15 13° WSW 21:16:44 10° W visible
28 May ? 05:13:38 10° ESE 05:15:15 11° ESE 05:16:53 10° SE visible
28 May ? 06:49:11 10° NNE 06:54:35 88° WNW 07:00:05 10° SSW visible
28 May ? 19:13:42 41° ESE 19:14:55 48° E 19:20:05 10° N visible
28 May ? 20:55:07 20° WSW 20:55:07 20° WSW 20:58:27 10° WNW visible
